| time (UTC) | temp C | wind direction | speed KPH | gust KPH | rain 1hr cm | rain 24hr cm | rain mn cm | humidity % | barometer mb |
| 20260508071544 | 5 | 342 | 0.0 | 1.6 | 0.00 | 0.00 | 0.00 | 68 | 1006.3 |
| 20260508070130 | 6 | 345 | 0.0 | 1.6 | 0.00 | 0.00 | 0.00 | 68 | 1006.4 |
| 20260508064540 | 6 | 41 | 0.0 | 1.6 | 0.00 | 0.03 | 0.00 | 65 | 1006.3 |
| 20260508063040 | 7 | 6 | 0.0 | 6.4 | 0.00 | 0.03 | 0.00 | 62 | 1006.4 |
| 20260508061539 | 7 | 4 | 0.0 | 6.4 | 0.00 | 0.03 | 0.00 | 60 | 1006.5 |
| 20260508060036 | 7 | 6 | 1.6 | 8.0 | 0.00 | 0.03 | 0.00 | 61 | 1006.5 |
| 20260508054535 | 7 | 28 | 0.0 | 4.8 | 0.00 | 0.05 | 0.00 | 62 | 1006.7 |
| 20260508053036 | 6 | 1 | 0.0 | 6.4 | 0.00 | 0.05 | 0.00 | 63 | 1006.8 |
| 20260508051531 | 6 | 42 | 0.0 | 1.6 | 0.00 | 0.05 | 0.00 | 64 | 1007.0 |
| 20260508050030 | 6 | 307 | 0.0 | 6.4 | 0.00 | 0.05 | 0.00 | 65 | 1007.1 |
| 20260508044529 | 6 | 23 | 0.0 | 1.6 | 0.00 | 0.43 | 0.00 | 65 | 1007.1 |
| 20260508043048 | 6 | 340 | 0.0 | 0.0 | 0.00 | 0.43 | 0.00 | 67 | 1007.3 |
| 20260508041525 | 7 | 340 | 0.0 | 1.6 | 0.00 | 0.43 | 0.00 | 65 | 1007.4 |
| 20260508040024 | 7 | 322 | 0.0 | 1.6 | 0.00 | 0.43 | 0.00 | 62 | 1007.3 |
| 20260508034517 | 7 | 1 | 0.0 | 1.6 | 0.00 | 0.46 | 0.43 | 60 | 1007.4 |
| 20260508033016 | 8 | 353 | 0.0 | 6.4 | 0.00 | 0.46 | 0.43 | 61 | 1007.2 |
| 20260508031520 | 8 | 336 | 0.0 | 4.8 | 0.00 | 0.46 | 0.43 | 62 | 1007.5 |
| 20260508030013 | 8 | 354 | 1.6 | 4.8 | 0.00 | 0.46 | 0.43 | 58 | 1007.4 |
| 20260508024513 | 8 | 323 | 0.0 | 6.4 | 0.00 | 0.46 | 0.43 | 59 | 1007.1 |
| 20260508023017 | 9 | 345 | 0.0 | 3.2 | 0.00 | 0.46 | 0.43 | 59 | 1007.1 |
| 20260508021512 | 10 | 356 | 0.0 | 8.0 | 0.00 | 0.46 | 0.43 | 57 | 1007.0 |
| 20260508020012 | 10 | 333 | 0.0 | 8.0 | 0.00 | 0.46 | 0.43 | 54 | 1006.6 |
| 20260508014513 | 10 | 14 | 1.6 | 9.7 | 0.00 | 0.48 | 0.43 | 54 | 1006.6 |
| 20260508013011 | 10 | 342 | 0.0 | 4.8 | 0.00 | 0.48 | 0.43 | 55 | 1006.3 |
| 20260508011508 | 11 | 9 | 3.2 | 14.5 | 0.00 | 0.48 | 0.43 | 57 | 1006.3 |
| 20260508010012 | 10 | 18 | 0.0 | 1.6 | 0.00 | 0.48 | 0.43 | 57 | 1006.2 |
| 20260508004507 | 11 | 170 | 0.0 | 6.4 | 0.00 | 0.53 | 0.43 | 53 | 1005.9 |
| 20260508003006 | 11 | 359 | 0.0 | 3.2 | 0.00 | 0.53 | 0.43 | 54 | 1005.5 |
| 20260508001506 | 11 | 353 | 0.0 | 1.6 | 0.00 | 0.53 | 0.43 | 53 | 1005.4 |
| 20260508000008 | 12 | 351 | 0.0 | 4.8 | 0.00 | 0.53 | 0.43 | 48 | 1005.2 |
| 20260507234505 | 12 | 210 | 0.0 | 1.6 | 0.00 | 0.58 | 0.43 | 50 | 1005.1 |
| 20260507233104 | 13 | 28 | 0.0 | 6.4 | 0.00 | 0.58 | 0.43 | 46 | 1004.9 |
| 20260507231509 | 13 | 288 | 3.2 | 14.5 | 0.00 | 0.58 | 0.43 | 43 | 1004.7 |
| 20260507230002 | 14 | 232 | 0.0 | 4.8 | 0.00 | 0.89 | 0.43 | 42 | 1004.4 |
| 20260507224502 | 15 | 144 | 4.8 | 11.3 | 0.00 | 0.89 | 0.43 | 40 | 1004.4 |
| 20260507223001 | 15 | 295 | 1.6 | 9.7 | 0.00 | 0.89 | 0.43 | 39 | 1004.1 |
| 20260507221602 | 15 | 74 | 3.2 | 6.4 | 0.00 | 0.89 | 0.43 | 43 | 1004.0 |
| 20260507220059 | 15 | 105 | 0.0 | 8.0 | 0.00 | 0.89 | 0.43 | 40 | 1004.0 |
| 20260507214558 | 15 | 82 | 1.6 | 16.1 | 0.00 | 1.22 | 0.43 | 38 | 1004.1 |
| 20260507213106 | 16 | 226 | 3.2 | 12.9 | 0.00 | 1.22 | 0.43 | 39 | 1003.9 |
| 20260507211600 | 16 | 202 | 0.0 | 8.0 | 0.00 | 1.22 | 0.43 | 41 | 1003.8 |
| 20260507210054 | 15 | 216 | 4.8 | 20.9 | 0.00 | 1.22 | 0.43 | 41 | 1003.7 |
| 20260507204557 | 12 | 172 | 12.9 | 20.9 | 0.00 | 1.32 | 0.43 | 74 | 1003.7 |
| 20260507203051 | 12 | 190 | 12.9 | 24.1 | 0.00 | 1.32 | 0.43 | 76 | 1003.5 |
| 20260507201600 | 12 | 195 | 11.3 | 20.9 | 0.00 | 1.32 | 0.43 | 78 | 1003.6 |
| 20260507200054 | 11 | 188 | 14.5 | 24.1 | 0.00 | 1.32 | 0.43 | 79 | 1003.7 |
| 20260507194553 | 12 | 180 | 11.3 | 19.3 | 0.00 | 1.37 | 0.43 | 77 | 1003.8 |
| 20260507193047 | 12 | 198 | 12.9 | 24.1 | 0.00 | 1.37 | 0.43 | 76 | 1003.9 |
| 20260507191608 | 11 | 187 | 14.5 | 19.3 | 0.00 | 1.37 | 0.43 | 82 | 1004.1 |
| 20260507190045 | 11 | 193 | 14.5 | 24.1 | 0.00 | 1.37 | 0.43 | 81 | 1004.2 |
| 20260507184556 | 13 | 167 | 14.5 | 25.7 | 0.00 | 1.37 | 0.43 | 71 | 1004.2 |
| 20260507183047 | 13 | 195 | 12.9 | 24.1 | 0.00 | 1.37 | 0.43 | 68 | 1004.4 |
| 20260507181541 | 13 | 184 | 14.5 | 27.4 | 0.00 | 1.37 | 0.43 | 71 | 1004.5 |
| 20260507180042 | 13 | 184 | 16.1 | 24.1 | 0.00 | 1.37 | 0.43 | 72 | 1004.6 |
| 20260507174542 | 12 | 186 | 17.7 | 22.5 | 0.00 | 1.37 | 0.43 | 73 | 1004.7 |
| 20260507173039 | 13 | 186 | 16.1 | 25.7 | 0.00 | 1.37 | 0.43 | 76 | 1004.8 |
| 20260507171542 | 12 | 195 | 12.9 | 22.5 | 0.00 | 1.37 | 0.43 | 77 | 1004.8 |
| 20260507170038 | 11 | 169 | 17.7 | 24.1 | 0.00 | 1.37 | 0.43 | 83 | 1004.9 |
| 20260507164549 | 12 | 182 | 17.7 | 24.1 | 0.00 | 1.37 | 0.43 | 79 | 1004.8 |
| 20260507163037 | 13 | 193 | 11.3 | 27.4 | 0.00 | 1.37 | 0.43 | 75 | 1004.9 |
| 20260507161539 | 15 | 217 | 9.7 | 24.1 | 0.00 | 1.37 | 0.43 | 68 | 1005.2 |
| 20260507160035 | 15 | 200 | 4.8 | 11.3 | 0.00 | 1.37 | 0.43 | 70 | 1005.1 |
| 20260507154528 | 13 | 134 | 1.6 | 8.0 | 0.00 | 1.37 | 0.43 | 74 | 1005.6 |
| 20260507153027 | 11 | 193 | 3.2 | 9.7 | 0.00 | 1.37 | 0.43 | 83 | 1005.7 |
| 20260507151526 | 11 | 191 | 3.2 | 12.9 | 0.00 | 1.37 | 0.43 | 83 | 1005.9 |
| 20260507150025 | 10 | 190 | 4.8 | 9.7 | 0.00 | 1.37 | 0.43 | 86 | 1005.9 |
| 20260507144524 | 10 | 169 | 9.7 | 12.9 | 0.00 | 1.37 | 0.43 | 84 | 1006.2 |
| 20260507143038 | 11 | 204 | 4.8 | 12.9 | 0.00 | 1.37 | 0.43 | 83 | 1006.2 |
| 20260507141521 | 12 | 163 | 3.2 | 11.3 | 0.00 | 1.37 | 0.43 | 78 | 1006.4 |
| 20260507140020 | 12 | 149 | 1.6 | 8.0 | 0.00 | 1.37 | 0.43 | 75 | 1006.4 |
| 20260507134519 | 12 | 151 | 1.6 | 8.0 | 0.00 | 1.37 | 0.43 | 76 | 1006.4 |
| 20260507133019 | 12 | 2 | 1.6 | 9.7 | 0.00 | 1.37 | 0.43 | 76 | 1006.4 |
| 20260507131517 | 12 | 142 | 1.6 | 14.5 | 0.00 | 1.37 | 0.43 | 78 | 1006.4 |
| 20260507130030 | 12 | 50 | 0.0 | 4.8 | 0.00 | 1.37 | 0.43 | 80 | 1006.6 |
| 20260507124513 | 11 | 19 | 3.2 | 9.7 | 0.00 | 1.37 | 0.43 | 80 | 1006.9 |
| 20260507123011 | 11 | 293 | 3.2 | 8.0 | 0.00 | 1.37 | 0.43 | 84 | 1006.6 |
| 20260507121509 | 10 | 19 | 3.2 | 6.4 | 0.00 | 1.37 | 0.43 | 87 | 1006.7 |
| 20260507120008 | 9 | 34 | 0.0 | 6.4 | 0.00 | 1.37 | 0.43 | 88 | 1006.4 |
| 20260507114506 | 9 | 28 | 1.6 | 4.8 | 0.00 | 1.37 | 0.43 | 91 | 1006.5 |
| 20260507113006 | 8 | 360 | 0.0 | 3.2 | 0.00 | 1.37 | 0.43 | 92 | 1006.6 |
| 20260507111504 | 8 | 12 | 0.0 | 1.6 | 0.00 | 1.37 | 0.43 | 92 | 1006.8 |
| 20260507110004 | 7 | 355 | 0.0 | 4.8 | 0.00 | 1.37 | 0.43 | 93 | 1006.7 |
| 20260507104502 | 7 | 210 | 0.0 | 1.6 | 0.00 | 1.37 | 0.43 | 93 | 1007.1 |
| 20260507103058 | -17 | 0.0 | 0.0 | 0.00 | 1.37 | 0.43 | 1007.2 | ||
| 20260507101554 | -17 | 0.0 | 0.0 | 0.00 | 1.37 | 0.43 | 1006.5 | ||
| 20260507100057 | -17 | 0.0 | 0.0 | 0.00 | 1.37 | 0.43 | 1006.5 | ||
| 20260507094547 | -17 | 0.0 | 0.0 | 0.00 | 1.37 | 0.43 | 1006.3 | ||
| 20260507093040 | -17 | 0.0 | 0.0 | 0.00 | 1.37 | 0.43 | 1005.9 | ||
| 20260507091540 | -17 | 0.0 | 0.0 | 0.00 | 1.37 | 0.43 | 1006.3 | ||
| 20260507090031 | -17 | 0.0 | 0.0 | 0.00 | 1.37 | 0.43 | 1006.2 | ||
| 20260507084527 | -17 | 0.0 | 0.0 | 0.00 | 1.37 | 0.43 | 1006.3 | ||
| 20260507083023 | -17 | 333 | 1.6 | 8.0 | 0.00 | 1.37 | 0.43 | 93 | 1006.0 |
| 20260507081521 | 8 | 345 | 0.0 | 6.4 | 0.00 | 1.37 | 0.43 | 94 | 1006.0 |
| 20260507080018 | 9 | 181 | 0.0 | 4.8 | 0.00 | 1.37 | 0.43 | 94 | 1006.0 |
| 20260507074517 | 9 | 325 | 0.0 | 6.4 | 0.00 | 1.37 | 0.43 | 94 | 1005.9 |
| 20260507073015 | 9 | 30 | 0.0 | 6.4 | 0.00 | 1.37 | 0.43 | 94 | 1005.6 |